Regional Weather Roundup
Issued by NWS

Home | Current Version | Previous Version | Graphics & Text | Print | Product List | Glossary On
Versions: 1 2 3 4 5 6 7 8 9 10 11 12 13 14 15 16 17 18 19 20 21 22 23 24 25 26 27 28 29 30 31 32 33 34 35 36 37 38 39 40 41 42 43 44 45 46 47 48 49 50
000
ASUS45 KBOU 271907
RWRCO

WEATHER ROUNDUP FOR COLORADO
NATIONAL WEATHER SERVICE DENVER/BOULDER CO
1200 PM MST THU NOV 27 2014

NOTE: "FAIR" INDICATES FEW OR NO CLOUDS BELOW 12000 FEET WITH NO
SIGNIFICANT WEATHER AND/OR OBSTRUCTIONS TO VISIBILITY.

COZ001>005-013-030-031-272000-
...NORTHWEST COLORADO...

CITY           SKY/WX    TMP DP  RH WIND       PRES   REMARKS
CRAIG          CLOUDY    44  26  49 E10       30.33F
HAYDEN         CLOUDY    37  25  60 SE7       30.35F
MEEKER         MOSUNNY   43  29  57 CALM      30.37F
MOUNT WERNER   NOT AVBL
STEAMBOAT SPGS CLOUDY    33  26  77 CALM      30.36F
WALDEN         PTSUNNY   43  19  39 SW18G28   30.32F
$$

COZ006>008-011-272000-
...WEST CENTRAL VALLEYS...

CITY           SKY/WX    TMP DP  RH WIND       PRES   REMARKS
GRAND JUNCTION SUNNY     48  27  44 CALM      30.41F
MONTROSE       SUNNY     49  25  39 NW3       30.43F
EAGLE          MOSUNNY   45  28  53 NE8       30.41F
RIFLE          SUNNY     40  27  59 CALM      30.43F
DELTA          SUNNY     49  28  44 CALM      30.42F
NUCLA          SUNNY     45  25  45 CALM      30.47F
$$

COZ017>023-064>068-272000-
...SOUTHWEST COLORADO...

CITY           SKY/WX    TMP DP  RH WIND       PRES   REMARKS
DURANGO        SUNNY     50  22  33 CALM      30.43F
CORTEZ         SUNNY     53  21  28 SW9       30.43F
PAGOSA SPRINGS SUNNY     51  15  24 CALM      30.45F
TELLURIDE      SUNNY     45  20  36 CALM      30.53F
WOLF CREEK PAS SUNNY     37   5  25 MISG      30.59F
$$

COZ009-010-012-014-032>034-037-058>063-272000-
...CENTRAL COLORADO...

CITY           SKY/WX    TMP DP  RH WIND       PRES   REMARKS
ASPEN          MOSUNNY   43  23  45 N6        30.41F
BUENA VISTA    SUNNY     51  13  22 NE6       30.36F
COPPER MTN     MOSUNNY   34  18  51 W18G30    30.50F WCI  23
BERTHOUD PASS  NOT AVBL
COTTONWOOD PAS SUNNY     45   9  23 N10G24    30.41F
GUNNISON       SUNNY     30  19  64 CALM      30.54F
KREMMLING      MOSUNNY   43  19  39 SW12G18   30.38F
LEADVILLE      MOSUNNY   41  13  31 N14G25    30.43F
MONARCH PASS   SUNNY     25  18  74 W41G58    30.59F WCI   5
SALIDA         SUNNY     55  15  20 SW24G36   30.40F
SUNLIGHT       SUNNY     34  28  80 CALM      30.51F
WILKERSON PASS SUNNY     41   5  22 W21G29    30.44F
$$

COZ069>075-272000-
...SAN LUIS VALLEY/SANGRE DE CRISTO MOUNTAINS...

CITY           SKY/WX    TMP DP  RH WIND       PRES   REMARKS
ALAMOSA        SUNNY     44  20  38 S5        30.45F
LA VETA PASS   PTSUNNY   39  16  38 SW8G22    30.47F
SAGUACHE       SUNNY     45  23  42 S7        30.46F
$$

COZ035-036-038>040-272000-
...NORTHERN COLORADO FRONT RANGE...

CITY           SKY/WX    TMP DP  RH WIND       PRES   REMARKS
DENVER INTL AP PTSUNNY   64  13  13 W22       30.16F
DMNS CITY PARK   N/A     64  12  13 SW3       30.18S
AURORA         PTSUNNY   65  13  13 W8        30.19F
FRONT RANGE AP NOT AVBL
ERIE MUNI ARPT PTSUNNY   63  12  14 W9G16     30.16F
BOULDER MUN AP PTSUNNY   61  18  18 NE6G20    30.16F
CENTENNIAL     PTSUNNY   62  11  13 SW8       30.19F
BROOMFIELD     NOT AVBL
FORT COLLINS   PTSUNNY   50  32  50 NE9       30.14F
LONGMONT       PTSUNNY   69  18  14 W18G29    30.15F
$$

COZ041-046-047-076>085-087-088-272000-
...PIKES PEAK/PALMER DIVIDE AND SOUTHERN FOOTHILLS...

CITY           SKY/WX    TMP DP  RH WIND       PRES   REMARKS
COLO. SPRINGS  PTSUNNY   64   9  11 SW8       30.24F
A. F. ACADEMY  MOSUNNY   62   8  11 VRB6G24   30.24F
ELLICOTT       NOT AVBL
FALCON         NOT AVBL
FORT CARSON    MOSUNNY   62  15  15 VRB6      30.21F
LIMON          PTSUNNY   66  12  12 W10G17    30.18F
MONUMENT HILL  PTSUNNY   59  10  14 W8        30.25F
TRINIDAD       CLOUDY    56  25  30 SE6       30.26F
$$

COZ042>045-048>051-090-091-272000-
...NORTHEAST COLORADO...

CITY           SKY/WX    TMP DP  RH WIND       PRES   REMARKS
GREELEY ARPT   PTSUNNY   46  28  49 NW3       30.15F
AKRON          PTSUNNY   50  27  40 SW15      30.12F
BURLINGTON     SUNNY     62  23  22 S24       30.15F
WRAY           MOSUNNY   65  31  28 S14       30.11F
STERLING       PTSUNNY   39  32  75 CALM      30.13F
HOLYOKE        MOSUNNY   59  37  44 W8        30.11F
FORT MORGAN    PTSUNNY   38  30  71 W7        30.13F
$$

COZ086-089-092>099-272000-
...SOUTHEAST COLORADO...

CITY           SKY/WX    TMP DP  RH WIND       PRES   REMARKS
PUEBLO         PTSUNNY   47  29  49 SE3       30.20F
LA JUNTA       MOSUNNY   54  29  38 SW3       30.20F
LAMAR          SUNNY     53  28  38 W6        30.18F
SPRINGFIELD      N/A     66  22  18 SW13      30.20F
$$


USA.gov is the U.S. government's official web portal to all federal, state and local government web resources and services.